Miscellaneous Local Product
Issued by NWS Hastings, NE

Home | Current Version | Previous Version | Graphics & Text | Print | Product List | Glossary On
Versions: 1 2 3 4 5 6 7 8 9 10 11 12 13 14 15 16 17 18 19 20 21 22 23 24 25 26 27 28 29 30 31 32 33 34 35 36 37 38 39 40 41 42 43 44 45 46 47 48 49 50
000
AXUS43 KGID 042302
MISGRI

GID CWA HOURLY WEATHER ROUNDUP
NATIONAL WEATHER SERVICE HASTINGS NE
600 PM CDT MON MAY 04 2015

NOTE: "FAIR" INDICATES FEW OR NO CLOUDS BELOW 12,000 FEET WITH NO
SIGNIFICANT WEATHER AND/OR OBSTRUCTIONS TO VISIBILITY.

...SOUTH CENTRAL NEBRASKA...

CITY           SKY/WX    TMP DP  RH WIND       PRES   REMARKS
GRAND ISLAND   CLOUDY    54  52  93 N15       30.08F FOG
HASTINGS       CLOUDY    56  52  86 NE16      30.06S
KEARNEY        CLOUDY    55  48  76 NE18      30.07F
ORD            CLOUDY    56  46  69 E9        30.10F
YORK           CLOUDY    57  55  94 NE13      30.07R
AURORA         CLOUDY    56  55  95 NE17      30.07S
LEXINGTON      CLOUDY    54  51  92 NE14      30.08F FOG
HOLDREGE       CLOUDY    55  49  81 NE20      30.05F
HEBRON         CLOUDY    65  56  73 NE14      30.01S

...NEBRASKA PANHANDLE...

CITY           SKY/WX    TMP DP  RH WIND       PRES   REMARKS
CHADRON        CLOUDY    53  42  66 E10       30.12F
ALLIANCE       CLOUDY    60  33  36 E16G26    30.10F
SCOTTSBLUFF    CLOUDY    60  37  42 SE18      30.09S
SIDNEY         MOSUNNY   57  42  57 E16       30.11S

...WESTERN AND NORTH CENTRAL NEBRASKA...

CITY           SKY/WX    TMP DP  RH WIND       PRES   REMARKS
VALENTINE      CLOUDY    65  26  23 E12       30.12F
AINSWORTH      CLOUDY    65  31  28 SE15G22   30.12S
ONEILL         CLOUDY    65  37  35 E9        30.12F
BROKEN BOW     LGT RAIN  53  49  86 NE7       30.10F
IMPERIAL       CLOUDY    50  45  83 NE17      30.10S
NORTH PLATTE   LGT RAIN  50  45  83 CALM      30.14S
MCCOOK         CLOUDY    56  48  74 N21       30.07R

...EASTERN NEBRASKA...

CITY           SKY/WX    TMP DP  RH WIND       PRES   REMARKS
NORFOLK        CLOUDY    58  50  75 E13       30.11S
SO SIOUX CITY  LGT RAIN  61  49  64 SE14      30.12S
TEKAMAH        RAIN      58  54  86 NE16      30.10F FOG
COLUMBUS       CLOUDY    55  48  76 E14       30.10S
ALBION         LGT RAIN  55  49  82 E10       30.11S
OMAHA EPPLEY   LGT RAIN  61  58  90 NE14      30.06F
OFFUTT AFB     CLOUDY    61  59  94 N9        30.05S
MILLARD        CLOUDY    61  56  84 N3        30.06S
LINCOLN        CLOUDY    59  56  89 NE17G24   30.05S
NEBRASKA CITY  DRIZZLE   63  63  99 NE9       30.04S
BEATRICE       CLOUDY    63  60  90 NE13G18   30.02F
FALLS CITY     CLOUDY    67  63  87 NE3       30.01R

...NORTHERN KANSAS...

CITY           SKY/WX    TMP DP  RH WIND       PRES   REMARKS
GOODLAND       PTSUNNY   63  49  60 NE12      30.04S
HILL CITY      PTSUNNY   68  55  63 N14       30.01R
NORTON         PTCLDY    63  46  55 N12       30.03R
PHILLIPSBURG   MOSUNNY   66  55  68 N13G18    30.02R
SMITH CENTER   SUNNY     64  54  68 N16       30.00F
HAYS           CLOUDY    66  57  72 NE8       29.97F
RUSSELL        CLOUDY    66  60  81 N7        29.95F THUNDER
CONCORDIA      PTSUNNY   69  60  73 N14       29.97R
SALINA         PTSUNNY   80  61  52 SW10      29.92R THUNDER
TOPEKA         PTSUNNY   81  60  48 VRB6      29.97R



USA.gov is the U.S. government's official web portal to all federal, state and local government web resources and services.